Peoria, IL

1:50 PM CDT on July 27, 2017 (GMT -0500)
Greater Peoria Regional

Weather History for KPIA - September, 2012

Change the Weather History Date:

Thursday, September 20, 2012

  Actual Average Record
Temperature  
Mean Temperature 61 °F 64 °F  
Max Temperature 72 °F 75 °F 94 °F (1940)
Min Temperature 49 °F 53 °F 32 °F (1991)
Degree Days  
Heating Degree Days 4 4  
Month to date heating degree days 39 33  
Since 1 July heating degree days 39 39  
Cooling Degree Days 0 3  
Month to date cooling degree days 89 97  
Year to date cooling degree days 1367 1004  
Growing Degree Days 11 (Base 50)    
Moisture  
Dew Point 43 °F    
Average Humidity 60    
Maximum Humidity 96    
Minimum Humidity 23    
Precipitation  
Precipitation 0.00 in 0.11 in 1.57 in (1883)
Month to date precipitation 3.28 2.17  
Year to date precipitation 20.16 27.12  
Snow  
Snow 0.00 in 0.00 in 0.00 in ()
Month to date snowfall 0.0 0.0  
Since 1 July snowfall 0.0 0.0  
Since 1 September snowfall 0.0 0.0  
Snow Depth 0.00 in    
Sea Level Pressure  
Sea Level Pressure 29.94 in    
Wind  
Wind Speed 4 mph (WNW)    
Max Wind Speed 16 mph    
Max Gust Speed 24 mph    
Visibility 10 miles    
Events      
T = Trace of Precipitation, MM = Missing Value Source: NWS Daily Summary

Daily Weather History Graph

Daily Weather History Graph

Search for Another Location

Airport or City:

Trip Planner

Search our weather history database for the weather conditions in past years. The results will help you decide how hot, cold, wet, or windy it might be!

Date:

Astronomy

Sep. 20, 2012 Rise Set
Actual Time 6:44 AM CDT 6:58 PM CDT
Civil Twilight 6:17 AM CDT 7:25 PM CDT
Nautical Twilight 5:45 AM CDT 7:57 PM CDT
Astronomical Twilight 5:12 AM CDT 8:30 PM CDT
Moon 12:04 PM CDT (9/20) 9:58 PM CDT (9/20)
Length of Visible Light 13h 08m
Length of Day
12h 13m
Waxing Crescent, 27% of the Moon is Illuminated
Sep 20
Waxing Crescent
Sep 22
First Quarter
Sep 29
Full
Oct 8
Last Quarter
Oct 15
New

Hourly Weather History & Observations

Time (CDT) Temp. Dew Point Humidity Pressure Visibility Wind Dir Wind Speed Gust Speed Precip Events Conditions
12:54 AM 59.0 °F 51.1 °F 75% 29.89 in 10.0 mi SW 10.4 mph - N/A   Scattered Clouds
1:54 AM 61.0 °F 52.0 °F 72% 29.90 in 10.0 mi WSW 5.8 mph - N/A   Mostly Cloudy
2:54 AM 57.0 °F 51.1 °F 81% 29.90 in 10.0 mi SW 3.5 mph - N/A   Partly Cloudy
3:54 AM 57.9 °F 52.0 °F 81% 29.89 in 10.0 mi Calm Calm - N/A   Scattered Clouds
4:54 AM 53.1 °F 51.1 °F 93% 29.90 in 10.0 mi Calm Calm - N/A   Clear
5:54 AM 52.0 °F 50.0 °F 93% 29.91 in 10.0 mi Calm Calm - N/A   Clear
6:54 AM 50.0 °F 48.0 °F 93% 29.94 in 10.0 mi Calm Calm - N/A   Clear
7:54 AM 53.1 °F 48.9 °F 86% 29.94 in 10.0 mi NW 3.5 mph - N/A   Clear
8:54 AM 60.1 °F 46.0 °F 60% 29.94 in 10.0 mi NNW 4.6 mph - N/A   Clear
9:54 AM 64.0 °F 46.0 °F 52% 29.95 in 10.0 mi NW 3.5 mph - N/A   Clear
10:54 AM 68.0 °F 43.0 °F 40% 29.95 in 10.0 mi NW 4.6 mph - N/A   Clear
11:54 AM 70.0 °F 39.9 °F 33% 29.94 in 10.0 mi West 10.4 mph 19.6 mph N/A   Clear
12:54 PM 71.1 °F 37.9 °F 30% 29.94 in 10.0 mi WNW 11.5 mph 18.4 mph N/A   Clear
1:54 PM 71.1 °F 35.1 °F 27% 29.93 in 10.0 mi NW 11.5 mph 18.4 mph N/A   Clear
2:54 PM 70.0 °F 30.9 °F 24% 29.93 in 10.0 mi WNW 10.4 mph - N/A   Clear
3:54 PM 69.1 °F 34.0 °F 27% 29.94 in 10.0 mi NW 8.1 mph - N/A   Clear
4:54 PM 69.1 °F 36.0 °F 30% 29.94 in 10.0 mi WNW 5.8 mph - N/A   Clear
5:54 PM 66.9 °F 37.0 °F 33% 29.94 in 10.0 mi West 4.6 mph - N/A   Clear
6:54 PM 63.0 °F 37.9 °F 40% 29.94 in 10.0 mi West 3.5 mph - N/A   Clear
7:54 PM 57.0 °F 42.1 °F 57% 29.95 in 10.0 mi Calm Calm - N/A   Clear
8:54 PM 57.0 °F 39.9 °F 53% 29.96 in 10.0 mi Calm Calm - N/A   Clear
9:54 PM 53.1 °F 42.1 °F 66% 29.98 in 10.0 mi Calm Calm - N/A   Clear
10:54 PM 51.8 °F 42.8 °F 71% 29.98 in 10.0 mi Calm Calm - N/A   Clear
11:54 PM 51.1 °F 43.0 °F 74% 29.98 in 10.0 mi Calm Calm - N/A   Clear